Location: Tuscaloosa
(33.2100°N, 87.5400°W)
Time: 21:56:09
(UTC-06:00)

Daily predictions for brighter satellites

Satellite Brightness Start Highest point End
(mag) Time Altitude Azimuth Time Altitude Azimuth Time Altitude Azimuth
Meteor 1-28 Rocket 3.3 17:07:24 10° NNE 17:11:02 53° E 17:14:39 10° S
Cosmos 1606 3.6 17:08:55 10° SSE 17:12:11 28° E 17:15:27 10° NNE
Okean 1-7 4.1 17:09:12 10° SE 17:12:46 25° E 17:16:22 10° NE
Cosmos 468 Rocket 4.0 17:08:08 10° NNW 17:13:19 89° WSW 17:18:26 10° SSE
Cosmos 1484 Rocket 2.8 17:10:52 10° SSE 17:14:38 61° ENE 17:18:29 10° N
BREEZE-M R/B 4.2 17:15:56 10° N 17:17:57 16° NE 17:20:39 10° E
IRAS Rocket 4.5 17:12:35 10° S 17:18:08 78° WSW 17:23:41 10° NNW
CZ-4C R/B 4.4 17:16:40 10° N 17:20:14 14° NE 17:23:57 10° ENE
Landsat 4 3.8 17:18:55 10° NNE 17:22:38 54° E 17:26:21 10° S
EO 1 Del DPAF 4.0 17:21:42 10° NNE 17:25:10 32° E 17:28:37 10° SSE
CZ-2C R/B 4.5 17:23:29 10° SSW 17:27:55 33° W 17:32:29 10° NNW
CSL-04 Rocket 3.9 17:23:01 10° S 17:28:17 76° WSW 17:33:38 10° NNW
Cosmos 1763 Rocket 3.4 17:26:29 10° NNW 17:31:41 77° ENE 17:36:46 10° SSE
CZ-3A R/B 4.4 17:17:58 10° NW 17:32:11 44° NNE 17:37:55 10° ESE
Cosmos 1782 Rocket 4.2 17:29:55 10° NNE 17:33:51 33° E 17:37:47 10° SE
METEOR-M 4.4 17:29:09 10° SE 17:34:09 44° ENE 17:39:11 10° N
Cosmos 2082 Rocket 3.0 17:30:12 10° N 17:35:02 28° ENE 17:39:49 10° ESE
YAOGAN 1 2.7 17:31:31 10° SSE 17:35:42 52° ENE 17:39:55 10° N
Cosmos 1782 2.8 17:33:14 10° S 17:37:12 63° E 17:41:11 10° NNE
Meteor 1-20 Rocket 4.1 17:33:40 10° N 17:39:10 65° E 17:44:35 10° SSE
USA 116 4.0 17:35:07 10° N 17:39:25 72° WNW 17:43:10 10° SSW
Meteor 1-25 Rocket 4.2 17:33:47 10° N 17:39:38 75° E 17:45:23 10° SSE
COSMO-SKYMED 1 2.6 17:35:28 10° NNE 17:39:44 56° E 17:43:59 10° S
ERS-2 2.3 17:40:24 10° SSE 17:43:56 47° ENE 17:47:29 10° N
Cosmos 405 Rocket 3.3 17:41:36 10° SSE 17:45:05 34° E 17:47:47 15° NNE
Cosmos 1072 Rocket 4.5 17:40:10 10° S 17:46:15 65° E 17:52:29 10° NNE
Cosmos 1814 Rocket 4.5 17:41:11 10° NNW 17:46:31 68° WSW 17:51:47 10° S
SL-27 R/B 2.3 17:45:15 10° N 17:48:32 53° ENE 17:51:49 10° SSE
OAO 3 Rocket 3.7 17:46:33 10° SW 17:51:19 52° SSE 17:54:18 22° E
Cosmos 1503 Rocket 4.0 17:46:15 10° SSW 17:51:33 88° ESE 17:56:48 10° NNE
Cosmos 2221 Rocket 3.5 17:48:04 10° S 17:52:27 70° E 17:56:50 10° NNE
Cosmos 2034 Rocket 4.2 17:46:58 10° SSE 17:53:02 48° E 17:59:05 10° NNE
Ariane Rocket 4.3 17:50:08 10° S 17:54:58 44° W 17:59:50 10° NNW
GPS 2-05 Rocket1 2.6 17:51:53 10° WSW 17:55:01 68° SSE 17:56:14 34° E
Cosmos 968 Rocket 4.1 17:51:14 10° SSE 17:55:50 34° E 17:58:24 22° NE
MTI 4.5 17:53:24 10° N 17:56:34 54° WNW 17:59:42 10° SSW
Cosmos 1703 Rocket 4.2 17:52:59 10° SSW 17:57:23 59° W 18:01:48 10° N
Cosmos 540 Rocket 3.6 17:53:09 10° N 17:58:09 48° ENE 18:03:07 10° SE
Meteor 1-27 Rocket 4.1 17:53:15 10° SSE 17:58:48 46° E 18:04:27 10° NNE
USA 234 3.3 17:55:35 13° NE 18:01:33 82° NW 18:08:05 10° SW
OPS 6431 4.4 17:59:41 10° NNW 18:02:53 75° ENE 18:04:43 21° SE
Tiangong 1 1.7 18:00:37 10° SSW 18:02:49 31° SSE 18:02:49 31° SSE
OAO 3 Copernicus 4.2 17:58:42 10° WNW 18:03:49 82° N 18:06:29 28° E
Cosmos 292 Rocket 4.4 18:01:25 10° N 18:05:41 32° ENE 18:06:28 30° E
MONITOR-E 3.9 18:03:16 10° SSE 18:06:19 80° ENE 18:09:21 10° N
Cosmos 841 Rocket 3.9 18:02:01 10° NNW 18:07:14 66° WSW 18:12:25 10° S
Meteor 1-10 Rocket 4.3 18:02:05 10° S 18:07:43 83° W 18:13:30 10° N
Cosmos 836 Rocket 4.5 18:03:33 10° N 18:08:44 59° ENE 18:13:56 10° SSE
DMSP B5D1-3 4.4 18:04:47 10° NNE 18:09:57 72° ESE 18:15:04 10° S
FENGYUN 3A 3.6 18:08:55 10° SSE 18:14:15 64° ENE 18:19:37 10° N
Cosmos 1633 3.2 18:11:10 10° NNW 18:14:46 58° W 18:18:22 10° S
Okean 2 Rocket 3.0 18:11:28 10° N 18:15:59 67° E 18:20:27 10° SSE
Cosmos 1464 Rocket 4.2 18:15:06 10° SSW 18:21:11 69° W 18:27:18 10° N
Cosmos 44 3.8 18:19:01 10° NNW 18:22:54 38° NE 18:22:54 38° NE
Cosmos 2369 Rocket 3.6 18:22:56 10° SSE 18:25:17 20° SE 18:25:17 20° SE
ALOS 2.3 18:25:42 10° S 18:30:21 81° WSW 18:35:03 10° NNW
Cosmos 1833 Rocket 2.6 18:25:23 10° NNW 18:31:02 89° ENE 18:36:40 10° SSE
SPOT 3 Rocket 3.7 18:26:38 10° S 18:31:50 72° WSW 18:37:03 10° NNW
Gblst 52 Del rocket 4.1 18:36:55 10° SSW 18:42:22 64° SE 18:42:56 60° E
Meteor 1-11 Rocket 3.6 18:36:55 10° N 18:42:46 82° E 18:48:27 10° S
USA 229 DEB 3.6 18:39:40 10° SSW 18:46:18 67° ESE 18:47:41 54° ENE
USA 229 3.6 18:39:47 10° SSW 18:46:25 66° ESE 18:47:43 55° ENE
Meteor 2-20 Rocket 4.3 18:48:57 10° N 18:55:04 88° E 19:01:08 10° S
Thor Agena Rocket 4.1 19:08:07 49° NW 19:08:57 55° WNW 19:13:57 10° SSW
CZ-4C R/B 3.0 19:02:47 10° NNW 19:09:18 59° NNE 19:09:18 59° NNE
MOS 1-B Rocket 4.4 19:08:43 10° SSE 19:15:40 88° WSW 19:23:55 10° NNW
Cosmos 2082 Rocket 3.7 19:14:02 10° NW 19:19:03 33° WSW 19:24:01 10° SSW
